Weather History for Fallon NAS, NV

Change the Weather History Date:

Sunday, February 3, 2013

  Actual Average Record
Temperature  
Mean Temperature 36 °F -  
Max Temperature 54 °F 48 °F 71 °F (1953)
Min Temperature 18 °F 20 °F -4 °F (1933)
Degree Days  
Heating Degree Days 29    
Moisture  
Dew Point 22 °F    
Average Humidity 80    
Maximum Humidity 93    
Minimum Humidity 37    
Precipitation  
Precipitation 0.00 in - - ()
Sea Level Pressure  
Sea Level Pressure 30.18 in    
Wind  
Wind Speed 2 mph (SSW)    
Max Wind Speed 8 mph    
Max Gust Speed -    
Visibility 6 miles    
Events Fog    
Averages and records for this station are not official NWS values.
T = Trace of Precipitation, MM = Missing Value Source: NWS Daily Summary

Daily Weather History Graph

Daily Weather History Graph

Search for Another Location

Airport:

Trip Planner

Search our weather history database for the weather conditions in past years. The results will help you decide how hot, cold, wet, or windy it might be!

Date:

Astronomy

Feb. 03, 2013 Rise Set
Actual Time 6:59 AM PST 5:17 PM PST
Civil Twilight 6:31 AM PST 5:46 PM PST
Nautical Twilight 5:59 AM PST 6:18 PM PST
Astronomical Twilight 5:28 AM PST 6:49 PM PST
Moon 12:32 AM PST (2/3) 10:58 AM PST (2/3)
Length of Visible Light 11h 14m
Length of Day
10h 18m
Waning Gibbous, 47% of the Moon is Illuminated
Feb 3
Waning Gibbous
Feb 9
New
Feb 17
First Quarter
Feb 25
Full
Mar 4
Last Quarter

Hourly Weather History & Observations

Time (PST) Temp. Windchill Dew Point Humidity Pressure Visibility Wind Dir Wind Speed Gust Speed Precip Events Conditions
12:56 AM 24.1 °F 19.7 °F 21.0 °F 88% 30.17 in 8.0 mi South 3.5 mph - N/A   Clear
1:56 AM 21.9 °F - 19.9 °F 92% 30.15 in 9.0 mi Calm Calm - N/A   Clear
2:56 AM 23.0 °F 18.4 °F 19.9 °F 88% 30.15 in 8.0 mi SW 3.5 mph - N/A   Clear
3:53 AM 23.0 °F 18.4 °F 19.4 °F 86% 30.25 in 10.0 mi SW 3.5 mph - N/A   Scattered Clouds
3:56 AM 23.0 °F 18.4 °F 19.9 °F 88% 30.14 in 10.0 mi SW 3.5 mph - N/A   Mostly Cloudy
4:12 AM 21.2 °F 14.9 °F 19.4 °F 93% 30.25 in 0.8 mi SW 4.6 mph - N/A   Mist
4:24 AM 21.2 °F 16.4 °F 19.4 °F 93% 30.25 in 0.2 mi SW 3.5 mph - N/A Fog Light Freezing Fog
4:37 AM 21.2 °F 16.4 °F 19.4 °F 93% 30.25 in 0.5 mi SW 3.5 mph - N/A Fog Light Freezing Fog
4:52 AM 21.9 °F 15.7 °F 19.9 °F 92% 30.13 in 2.5 mi SSW 4.6 mph - N/A   Mostly Cloudy
4:55 AM 21.2 °F 14.9 °F 19.4 °F 93% 30.24 in 3.0 mi SSW 4.6 mph - N/A   Scattered Clouds
5:38 AM 19.4 °F - 17.6 °F 93% 30.24 in 4.0 mi Calm Calm - N/A   Mostly Cloudy
5:42 AM 19.4 °F - 17.6 °F 93% 30.24 in 1.8 mi Calm Calm - N/A   Mostly Cloudy
5:56 AM 18.0 °F - 16.0 °F 92% 30.13 in 0.5 mi Calm Calm - N/A Fog Light Freezing Fog
6:06 AM 19.4 °F - 17.6 °F 93% 30.24 in 0.5 mi Calm Calm - N/A Fog Light Freezing Fog
6:13 AM 19.4 °F - 17.6 °F 93% 30.24 in 0.2 mi Calm Calm - N/A Fog Light Freezing Fog
6:22 AM 19.4 °F - 17.6 °F 93% 30.24 in 1.0 mi Calm Calm - N/A   Mist
6:32 AM 19.4 °F - 17.6 °F 93% 30.24 in 0.2 mi Calm Calm - N/A Fog Light Freezing Fog
6:41 AM 19.4 °F - 17.6 °F 93% 30.25 in 0.8 mi Calm Calm - N/A   Mist
6:48 AM 19.4 °F - 17.6 °F 93% 30.25 in 2.0 mi Calm Calm - N/A   Mostly Cloudy
6:56 AM 19.9 °F - 17.1 °F 89% 30.14 in 5.0 mi Calm Calm - N/A   Mostly Cloudy
7:03 AM 19.4 °F - 17.6 °F 93% 30.25 in 0.8 mi Calm Calm - N/A   Mist
7:16 AM 19.4 °F - 17.6 °F 93% 30.25 in 0.2 mi Calm Calm - N/A Fog Light Freezing Fog
7:39 AM 23.0 °F - 19.4 °F 86% 30.26 in 0.5 mi Calm Calm - N/A Fog Light Freezing Fog
7:48 AM 21.2 °F - 19.4 °F 93% 30.26 in 2.0 mi Calm Calm - N/A   Clear
7:56 AM 23.0 °F 17.0 °F 19.9 °F 88% 30.15 in 3.0 mi North 4.6 mph - N/A   Clear
8:56 AM 32.0 °F - 28.9 °F 88% 30.16 in 10.0 mi Calm Calm - N/A   Overcast
9:56 AM 37.0 °F 34.5 °F 30.0 °F 76% 30.16 in 10.0 mi SSW 3.5 mph - N/A   Overcast
10:56 AM 39.9 °F 36.7 °F 32.0 °F 73% 30.16 in 10.0 mi SW 4.6 mph - N/A   Partly Cloudy
11:02 AM 39.2 °F 35.9 °F 32.0 °F 75% 30.27 in 10.0 mi SW 4.6 mph - N/A   Scattered Clouds
11:56 AM 44.1 °F - 30.9 °F 60% 30.13 in 10.0 mi Calm Calm - N/A   Scattered Clouds
12:56 PM 48.0 °F - 30.9 °F 52% 30.10 in 10.0 mi Calm Calm - N/A   Partly Cloudy
1:56 PM 52.0 °F - 30.9 °F 45% 30.09 in 10.0 mi ENE 5.8 mph - N/A   Partly Cloudy
2:56 PM 54.0 °F - 30.0 °F 40% 30.09 in 10.0 mi North 4.6 mph - N/A   Partly Cloudy
3:56 PM 54.0 °F - 28.0 °F 37% 30.10 in 10.0 mi NNE 6.9 mph - N/A   Partly Cloudy
4:56 PM 51.1 °F - 27.0 °F 39% 30.08 in 10.0 mi East 5.8 mph - N/A   Partly Cloudy
5:56 PM 42.1 °F - 26.1 °F 53% 30.09 in 10.0 mi Calm Calm - N/A   Partly Cloudy
6:56 PM 36.0 °F 32.1 °F 24.1 °F 62% 30.09 in 10.0 mi North 4.6 mph - N/A   Clear
7:56 PM 33.1 °F - 24.1 °F 70% 30.10 in 10.0 mi Calm Calm - N/A   Clear
8:56 PM 28.9 °F - 21.0 °F 72% 30.10 in 10.0 mi Calm Calm - N/A   Clear
9:56 PM 28.9 °F 21.1 °F 21.9 °F 75% 30.11 in 10.0 mi South 8.1 mph - N/A   Clear
10:56 PM 28.9 °F - 21.0 °F 72% 30.11 in 10.0 mi Calm Calm - N/A   Clear
11:56 PM 27.0 °F - 21.0 °F 78% 30.12 in 10.0 mi Calm Calm - N/A   Clear